Weather WX

World > North America > United States > Michigan

Battle Creek, Michigan Regional Weather

Lat: 42.30N, Lon: 85.23W
Wx Zone: MIZ073
Feedback

Battle Creek, MI Regional Weather

Expires:201906170200;;188139
ASUS43 KDTX 170110
RWRMI 
MICHIGAN HOURLY REGIONAL WEATHER ROUNDUP
NATIONAL WEATHER SERVICE DETROIT/PONTIAC MI
900 PM EDT SUN JUN 16 2019

NOTE: "FAIR" INDICATES FEW OR NO CLOUDS BELOW 12,000 FEET WITH NO
SIGNIFICANT WEATHER AND/OR OBSTRUCTION TO VISIBILITY.


MIZ043>046-050>051-056>058-064>065-071>073-077>080-170200-
SOUTHWEST LOWER MICHIGAN
  
CITY           SKY/WX    TMP DP  RH WIND       PRES   REMARKS
BATTLE CREEK   CLOUDY    61  60  97 NE8       29.90S FOG              
BENTON HARBOR  CLOUDY    60  57  89 CALM      29.86F FOG              
BIG RAPIDS     CLOUDY    58  45  62 E5        29.95S                  
COLDWATER      CLOUDY    64  64 100 NE7       29.88S                  
FREMONT        CLOUDY    58  47  67 E10       29.93S                  
HOLLAND        CLOUDY    61  54  77 E6        29.91S                  
GRAND RAPIDS   CLOUDY    61  52  72 E8        29.91S                  
IONIA          CLOUDY    60  50  70 NE7       29.92R                  
KALAMAZOO      CLOUDY    62  58  86 NE6       29.89S                  
LUDINGTON      CLOUDY    58  53  84 CALM      29.94S                  
MARSHALL       CLOUDY    61  61 100 E3        29.89S FOG              
MOUNT PLEASANT RAIN      57  49  74 NE8       29.95R                  
MUSKEGON       CLOUDY    61  47  59 NE9       29.91F                  
SOUTH HAVEN    CLOUDY    60  58  94 NE6       29.88S                  
$$

SKY/WX - Weather  TMP - Temperature  DP - Dew Point  RH - Relative Humidity
WIND - Wind Direction/Speed PRES - Barometric Pressure VSB - Visibility
WCI - Wind Chill Index E13G22 Wind - East Wind 13 mph/Gusts of 22 mph